,,,PA_Meas_PMT16A,,PR_Meas_QMR101_102,,RH_Meas_QMH101,,SR_Meas_QMS101,,TA_Meas_QMH101,,GenWind,,GenWind,
date,time,status,PA,status,PR,status,RH,status,SR,status,TA,status,DirAvg,status,SpdAvg,
2013-03-10, 00:00:04,VALID,1011.3,VALID,0,VALID,104,VALID,0,VALID,25.2337,VALID,354,VALID,0.336328,
2013-03-10, 00:01:04,VALID,1011.27,VALID,0,VALID,104,VALID,0,VALID,25.1733,VALID,353,VALID,0.255859,
2013-03-10, 00:02:04,VALID,1011.23,VALID,0,VALID,104,VALID,0,VALID,25.1752,VALID,353,VALID,0.144141,
2013-03-10, 00:03:04,VALID,1011.21,VALID,0,VALID,104,VALID,0,VALID,25.1362,VALID,354,VALID,0,
2013-03-10, 00:04:04,VALID,1011.22,VALID,0,VALID,104,VALID,0,VALID,25.1148,VALID,353,VALID,0,
2013-03-10, 00:05:04,VALID,1011.19,VALID,0,VALID,104,VALID,0,VALID,25.1167,VALID,353,VALID,0,
2013-03-10, 00:06:04,VALID,1011.16,VALID,0,VALID,104,VALID,0,VALID,25.0778,VALID,353,VALID,0,
2013-03-10, 00:07:04,VALID,1011.19,VALID,0,VALID,104,VALID,0,VALID,25.0369,VALID,353,VALID,0,
2013-03-10, 00:08:04,VALID,1011.19,VALID,0,VALID,104,VALID,0.112112,VALID,25.0388,VALID,353,VALID,0.114453,
2013-03-10, 00:09:04,VALID,1011.18,VALID,0,VALID,104,VALID,0,VALID,24.9979,VALID,354,VALID,0.246484,
2013-03-10, 00:10:04,VALID,1011.18,VALID,0,VALID,104,VALID,0,VALID,24.9784,VALID,354,VALID,0.253125,
2013-03-10, 00:11:04,VALID,1011.18,VALID,0,VALID,104,VALID,0,VALID,25.0193,VALID,353,VALID,0.126953,
2013-03-10, 00:12:04,VALID,1011.14,VALID,0,VALID,104,VALID,0,VALID,24.9784,VALID,353,VALID,0,
2013-03-10, 00:13:04,VALID,1011.12,VALID,0,VALID,104,VALID,0,VALID,24.9998,VALID,353,VALID,0.0199219,
2013-03-10, 00:14:04,VALID,1011.05,VALID,0,VALID,104,VALID,0,VALID,24.9608,VALID,353,VALID,0.303125,
2013-03-10, 00:15:04,VALID,1011.05,VALID,0,VALID,104,VALID,0.112112,VALID,24.9004,VALID,354,VALID,0.414063,
2013-03-10, 00:16:04,VALID,1011,VALID,0,VALID,104,VALID,0,VALID,24.8809,VALID,353,VALID,0.383203,
2013-03-10, 00:17:04,VALID,1011.01,VALID,0,VALID,104,VALID,0.112112,VALID,24.8633,VALID,353,VALID,0.283984,
2013-03-10, 00:18:04,VALID,1010.99,VALID,0,VALID,104,VALID,0,VALID,24.8438,VALID,354,VALID,0.21875,
2013-03-10, 00:19:04,VALID,1010.98,VALID,0,VALID,104,VALID,0,VALID,24.8049,VALID,353,VALID,0.183984,
2013-03-10, 00:20:04,VALID,1010.96,VALID,0,VALID,104,VALID,0,VALID,24.764,VALID,354,VALID,0.116406,
2013-03-10, 00:21:04,VALID,1010.94,VALID,0,VALID,104,VALID,0,VALID,24.764,VALID,354,VALID,0.142969,
2013-03-10, 00:22:04,VALID,1010.91,VALID,0,VALID,104,VALID,0,VALID,24.7445,VALID,353,VALID,0.220703,
2013-03-10, 00:23:04,VALID,1010.9,VALID,0,VALID,104,VALID,0,VALID,24.7464,VALID,354,VALID,0.271484,
2013-03-10, 00:24:04,VALID,1010.88,VALID,0,VALID,104,VALID,0,VALID,24.7464,VALID,353,VALID,0.335938,
2013-03-10, 00:25:04,VALID,1010.86,VALID,0,VALID,104,VALID,0,VALID,24.7464,VALID,353,VALID,0.610547,
2013-03-10, 00:26:04,VALID,1010.82,VALID,0,VALID,104,VALID,0,VALID,24.7269,VALID,41,VALID,0.875781,
2013-03-10, 00:27:04,VALID,1010.79,VALID,0,VALID,104,VALID,0.112112,VALID,24.7659,VALID,50,VALID,0.780469,
2013-03-10, 00:28:04,VALID,1010.74,VALID,0,VALID,104,VALID,0,VALID,24.7854,VALID,50,VALID,0.339063,
2013-03-10, 00:29:04,VALID,1010.7,VALID,0,VALID,104,VALID,0,VALID,24.8049,VALID,51,VALID,0.361328,
2013-03-10, 00:30:04,VALID,1010.71,VALID,0,VALID,104,VALID,0,VALID,24.8049,VALID,51,VALID,0.596875,
2013-03-10, 00:31:04,VALID,1010.67,VALID,0,VALID,104,VALID,0,VALID,24.764,VALID,48,VALID,0.576563,
2013-03-10, 00:32:04,VALID,1010.64,VALID,0,VALID,104,VALID,0,VALID,24.7659,VALID,48,VALID,0.391797,
2013-03-10, 00:33:04,VALID,1010.64,VALID,0,VALID,104,VALID,0,VALID,24.7659,VALID,47,VALID,0.300781,
2013-03-10, 00:34:04,VALID,1010.61,VALID,0,VALID,104,VALID,0.112112,VALID,24.7659,VALID,47,VALID,0.325391,
2013-03-10, 00:35:04,VALID,1010.58,VALID,0,VALID,104,VALID,0,VALID,24.725,VALID,48,VALID,0.1,
2013-03-10, 00:36:04,VALID,1010.57,VALID,0,VALID,104,VALID,0,VALID,24.7464,VALID,48,VALID,0.195313,
2013-03-10, 00:37:04,VALID,1010.55,VALID,0,VALID,104,VALID,0,VALID,24.7464,VALID,48,VALID,0.295312,
2013-03-10, 00:38:04,VALID,1010.56,VALID,0,VALID,104,VALID,0,VALID,24.7854,VALID,47,VALID,0.257813,
2013-03-10, 00:39:04,VALID,1010.57,VALID,0,VALID,104,VALID,0,VALID,24.725,VALID,47,VALID,0.473828,
2013-03-10, 00:40:04,VALID,1010.57,VALID,0,VALID,104,VALID,0,VALID,24.7269,VALID,47,VALID,0.4875,
2013-03-10, 00:41:04,VALID,1010.56,VALID,0,VALID,104,VALID,0,VALID,24.6879,VALID,48,VALID,0.338281,
2013-03-10, 00:42:04,VALID,1010.53,VALID,0,VALID,104,VALID,0,VALID,24.6684,VALID,48,VALID,0.275,
2013-03-10, 00:43:04,VALID,1010.52,VALID,0,VALID,104,VALID,0.112112,VALID,24.6471,VALID,48,VALID,0.215625,
2013-03-10, 00:44:04,VALID,1010.5,VALID,0,VALID,104,VALID,0,VALID,24.6276,VALID,47,VALID,0.244141,
2013-03-10, 00:45:04,VALID,1010.48,VALID,0,VALID,104,VALID,0,VALID,24.6703,VALID,47,VALID,0.167969,
2013-03-10, 00:46:04,VALID,1010.45,VALID,0,VALID,104,VALID,0,VALID,24.6294,VALID,48,VALID,0.130078,
2013-03-10, 00:47:04,VALID,1010.45,VALID,0,VALID,104,VALID,0,VALID,24.6081,VALID,48,VALID,0,
2013-03-10, 00:48:04,VALID,1010.42,VALID,0,VALID,104,VALID,0,VALID,24.6099,VALID,47,VALID,0,
2013-03-10, 00:49:04,VALID,1010.42,VALID,0,VALID,104,VALID,0,VALID,24.5905,VALID,48,VALID,0,
2013-03-10, 00:50:04,VALID,1010.41,VALID,0,VALID,104,VALID,0,VALID,24.571,VALID,47,VALID,0.0464844,
2013-03-10, 00:51:04,VALID,1010.39,VALID,0,VALID,104,VALID,0,VALID,24.5515,VALID,48,VALID,0.118359,
2013-03-10, 00:52:04,VALID,1010.39,VALID,0,VALID,104,VALID,0,VALID,24.5515,VALID,48,VALID,0.246875,
2013-03-10, 00:53:04,VALID,1010.36,VALID,0,VALID,104,VALID,0,VALID,24.5301,VALID,48,VALID,0.271875,
2013-03-10, 00:54:04,VALID,1010.34,VALID,0,VALID,104,VALID,0,VALID,24.571,VALID,48,VALID,0.319141,
2013-03-10, 00:55:04,VALID,1010.34,VALID,0,VALID,104,VALID,0,VALID,24.5886,VALID,47,VALID,0.241406,
2013-03-10, 00:56:04,VALID,1010.34,VALID,0,VALID,104,VALID,0,VALID,24.6099,VALID,48,VALID,0.196094,
2013-03-10, 00:57:04,VALID,1010.35,VALID,0,VALID,104,VALID,0,VALID,24.6081,VALID,47,VALID,0.490234,
2013-03-10, 00:58:04,VALID,1010.38,VALID,0,VALID,104,VALID,0,VALID,24.6081,VALID,47,VALID,0.33125,
2013-03-10, 00:59:04,VALID,1010.37,VALID,0,VALID,104,VALID,0,VALID,24.6099,VALID,48,VALID,0.442187,
2013-03-10, 01:00:04,VALID,1010.39,VALID,0,VALID,104,VALID,0,VALID,24.5905,VALID,48,VALID,0.437109,
2013-03-10, 01:01:04,VALID,1010.35,VALID,0,VALID,104,VALID,0,VALID,24.5886,VALID,48,VALID,0.426172,
2013-03-10, 01:02:04,VALID,1010.35,VALID,0,VALID,104,VALID,0,VALID,24.5905,VALID,48,VALID,0.375,
2013-03-10, 01:03:04,VALID,1010.34,VALID,0,VALID,104,VALID,0,VALID,24.5905,VALID,40,VALID,0.283203,
2013-03-10, 01:04:04,VALID,1010.31,VALID,0,VALID,104,VALID,0,VALID,24.6099,VALID,40,VALID,0.270703,
2013-03-10, 01:05:04,VALID,1010.27,VALID,0,VALID,104,VALID,0,VALID,24.6099,VALID,40,VALID,0.257813,
2013-03-10, 01:06:04,VALID,1010.26,VALID,0,VALID,104,VALID,0,VALID,24.6099,VALID,40,VALID,0.292188,
2013-03-10, 01:07:04,VALID,1010.24,VALID,0,VALID,104,VALID,0,VALID,24.5886,VALID,40,VALID,0.310156,
2013-03-10, 01:08:04,VALID,1010.21,VALID,0,VALID,104,VALID,0,VALID,24.6294,VALID,40,VALID,0.380078,
2013-03-10, 01:09:04,VALID,1010.21,VALID,0,VALID,104,VALID,0,VALID,24.6294,VALID,40,VALID,0.371875,
2013-03-10, 01:10:04,VALID,1010.21,VALID,0,VALID,104,VALID,0,VALID,24.6081,VALID,40,VALID,0.328516,
2013-03-10, 01:11:04,VALID,1010.21,VALID,0,VALID,104,VALID,0,VALID,24.6489,VALID,40,VALID,0.426172,
2013-03-10, 01:12:04,VALID,1010.2,VALID,0,VALID,104,VALID,0,VALID,24.6062,VALID,40,VALID,0.413281,
2013-03-10, 01:13:04,VALID,1010.18,VALID,0,VALID,104,VALID,0,VALID,24.6489,VALID,40,VALID,0.272266,
2013-03-10, 01:14:04,VALID,1010.16,VALID,0,VALID,104,VALID,0,VALID,24.6471,VALID,40,VALID,0.505469,
2013-03-10, 01:15:04,VALID,1010.21,VALID,0,VALID,104,VALID,0,VALID,24.6879,VALID,40,VALID,0.321875,
2013-03-10, 01:16:04,VALID,1010.2,VALID,0,VALID,104,VALID,0,VALID,24.7074,VALID,350,VALID,0.572266,
2013-03-10, 01:17:04,VALID,1010.22,VALID,0,VALID,104,VALID,0.112112,VALID,24.7074,VALID,346,VALID,0.182812,
2013-03-10, 01:18:04,VALID,1010.21,VALID,0,VALID,104,VALID,0,VALID,24.686,VALID,346,VALID,0.129688,
2013-03-10, 01:19:04,VALID,1010.21,VALID,0,VALID,104,VALID,0,VALID,24.7074,VALID,346,VALID,0,
2013-03-10, 01:20:04,VALID,1010.2,VALID,0,VALID,104,VALID,0,VALID,24.7074,VALID,346,VALID,0,
2013-03-10, 01:21:04,VALID,1010.19,VALID,0,VALID,104,VALID,0,VALID,24.6879,VALID,346,VALID,0,
2013-03-10, 01:22:04,VALID,1010.18,VALID,0,VALID,104,VALID,0,VALID,24.6879,VALID,346,VALID,0,
2013-03-10, 01:23:04,VALID,1010.16,VALID,0,VALID,104,VALID,0,VALID,24.6684,VALID,346,VALID,0,
2013-03-10, 01:24:04,VALID,1010.15,VALID,0,VALID,104,VALID,0,VALID,24.6294,VALID,346,VALID,0.155078,
2013-03-10, 01:25:04,VALID,1010.15,VALID,0,VALID,104,VALID,0,VALID,24.5886,VALID,346,VALID,0.188672,
2013-03-10, 01:26:04,VALID,1010.12,VALID,0,VALID,104,VALID,0,VALID,24.6099,VALID,346,VALID,0.247656,
2013-03-10, 01:27:04,VALID,1010.1,VALID,0,VALID,104,VALID,0,VALID,24.5905,VALID,346,VALID,0.219922,
2013-03-10, 01:28:04,VALID,1010.1,VALID,0,VALID,104,VALID,0,VALID,24.5905,VALID,346,VALID,0.175391,
2013-03-10, 01:29:04,VALID,1010.07,VALID,0,VALID,104,VALID,0,VALID,24.5691,VALID,346,VALID,0.224219,
2013-03-10, 01:30:04,VALID,1010.1,VALID,0,VALID,104,VALID,0,VALID,24.5496,VALID,346,VALID,0.149609,
2013-03-10, 01:31:04,VALID,1010.08,VALID,0,VALID,104,VALID,0,VALID,24.5301,VALID,346,VALID,0.015625,
2013-03-10, 01:32:04,VALID,1010.08,VALID,0,VALID,104,VALID,0,VALID,24.493,VALID,346,VALID,0,
2013-03-10, 01:33:04,VALID,1010.09,VALID,0,VALID,104,VALID,0,VALID,24.4735,VALID,346,VALID,0,
2013-03-10, 01:34:04,VALID,1010.13,VALID,0,VALID,104,VALID,0,VALID,24.454,VALID,346,VALID,0,
2013-03-10, 01:35:04,VALID,1010.1,VALID,0,VALID,104,VALID,0,VALID,24.4327,VALID,346,VALID,0,
2013-03-10, 01:36:04,VALID,1010.08,VALID,0,VALID,104,VALID,0,VALID,24.493,VALID,346,VALID,0.0867188,
2013-03-10, 01:37:04,VALID,1010.08,VALID,0,VALID,104,VALID,0,VALID,24.5125,VALID,346,VALID,0.143359,
2013-03-10, 01:38:04,VALID,1010.09,VALID,0,VALID,104,VALID,0,VALID,24.4911,VALID,346,VALID,0,
2013-03-10, 01:39:04,VALID,1010.09,VALID,0,VALID,104,VALID,0,VALID,24.532,VALID,346,VALID,0,
2013-03-10, 01:40:04,VALID,1010.07,VALID,0,VALID,104,VALID,0,VALID,24.532,VALID,346,VALID,0,
2013-03-10, 01:41:04,VALID,1010.05,VALID,0,VALID,104,VALID,0,VALID,24.4522,VALID,346,VALID,0.0386719,
2013-03-10, 01:42:04,VALID,1010.03,VALID,0,VALID,104,VALID,0,VALID,24.3742,VALID,346,VALID,0.250391,
2013-03-10, 01:43:04,VALID,1010.01,VALID,0,VALID,104,VALID,0,VALID,24.3352,VALID,346,VALID,0.282422,
2013-03-10, 01:44:04,VALID,1010,VALID,0,VALID,104,VALID,0,VALID,24.3566,VALID,346,VALID,0.209375,
2013-03-10, 01:45:04,VALID,1009.96,VALID,0,VALID,104,VALID,0,VALID,24.3371,VALID,346,VALID,0.121484,
2013-03-10, 01:46:04,VALID,1009.92,VALID,0,VALID,104,VALID,0,VALID,24.3176,VALID,346,VALID,0,
2013-03-10, 01:47:04,VALID,1009.93,VALID,0,VALID,104,VALID,0,VALID,24.2963,VALID,346,VALID,0,
2013-03-10, 01:48:04,VALID,1009.91,VALID,0,VALID,104,VALID,0,VALID,24.3176,VALID,346,VALID,0,
2013-03-10, 01:49:04,VALID,1009.88,VALID,0,VALID,104,VALID,0,VALID,24.2963,VALID,346,VALID,0,
2013-03-10, 01:50:04,VALID,1009.88,VALID,0,VALID,104,VALID,0,VALID,24.2981,VALID,346,VALID,0,
2013-03-10, 01:51:04,VALID,1009.89,VALID,0,VALID,104,VALID,0,VALID,24.2981,VALID,346,VALID,0,
2013-03-10, 01:52:04,VALID,1009.88,VALID,0,VALID,104,VALID,0,VALID,24.2981,VALID,346,VALID,0,
2013-03-10, 01:53:04,VALID,1009.89,VALID,0,VALID,104,VALID,0,VALID,24.3371,VALID,346,VALID,0.259766,
2013-03-10, 01:54:04,VALID,1009.9,VALID,0,VALID,104,VALID,0,VALID,24.3371,VALID,346,VALID,0.274609,
2013-03-10, 01:55:04,VALID,1009.89,VALID,0,VALID,104,VALID,0,VALID,24.3547,VALID,346,VALID,0.166797,
2013-03-10, 01:56:04,VALID,1009.86,VALID,0,VALID,104,VALID,0,VALID,24.3352,VALID,346,VALID,0.125,
2013-03-10, 01:57:04,VALID,1009.89,VALID,0,VALID,104,VALID,0,VALID,24.2963,VALID,346,VALID,0.184766,
2013-03-10, 01:58:04,VALID,1009.84,VALID,0,VALID,104,VALID,0.112112,VALID,24.2786,VALID,346,VALID,0,
2013-03-10, 01:59:04,VALID,1009.87,VALID,0,VALID,104,VALID,0,VALID,24.2396,VALID,346,VALID,0,
2013-03-10, 02:00:04,VALID,1009.87,VALID,0,VALID,104,VALID,0,VALID,24.1988,VALID,346,VALID,0,
2013-03-10, 02:01:04,VALID,1009.86,VALID,0,VALID,104,VALID,0,VALID,24.1988,VALID,346,VALID,0,
2013-03-10, 02:02:04,VALID,1009.88,VALID,0,VALID,104,VALID,0,VALID,24.2007,VALID,346,VALID,0,
2013-03-10, 02:03:04,VALID,1009.85,VALID,0,VALID,104,VALID,0,VALID,24.1812,VALID,346,VALID,0,
2013-03-10, 02:04:04,VALID,1009.85,VALID,0,VALID,104,VALID,0,VALID,24.1422,VALID,346,VALID,0,
2013-03-10, 02:05:04,VALID,1009.86,VALID,0,VALID,104,VALID,0,VALID,24.1227,VALID,346,VALID,0,
2013-03-10, 02:06:04,VALID,1009.83,VALID,0,VALID,104,VALID,0,VALID,24.0837,VALID,346,VALID,0.25625,
2013-03-10, 02:07:04,VALID,1009.79,VALID,0,VALID,104,VALID,0,VALID,24.1032,VALID,346,VALID,0.203516,
2013-03-10, 02:08:04,VALID,1009.82,VALID,0,VALID,104,VALID,0,VALID,24.0643,VALID,346,VALID,0.121484,
2013-03-10, 02:09:04,VALID,1009.81,VALID,0,VALID,104,VALID,0,VALID,24.0643,VALID,346,VALID,0.219531,
2013-03-10, 02:10:04,VALID,1009.79,VALID,0,VALID,104,VALID,0,VALID,24.0643,VALID,346,VALID,0.0863281,
2013-03-10, 02:11:04,VALID,1009.8,VALID,0,VALID,104,VALID,0,VALID,24.0643,VALID,346,VALID,0,
2013-03-10, 02:12:04,VALID,1009.81,VALID,0,VALID,104,VALID,0,VALID,24.0448,VALID,346,VALID,0,
2013-03-10, 02:13:04,VALID,1009.81,VALID,0,VALID,104,VALID,0,VALID,24.0448,VALID,346,VALID,0,
2013-03-10, 02:14:04,VALID,1009.78,VALID,0,VALID,104,VALID,0,VALID,24.0235,VALID,346,VALID,0,
2013-03-10, 02:15:04,VALID,1009.79,VALID,0,VALID,104,VALID,0,VALID,24.0643,VALID,346,VALID,0,
2013-03-10, 02:16:04,VALID,1009.79,VALID,0,VALID,104,VALID,0,VALID,24.0643,VALID,346,VALID,0,
2013-03-10, 02:17:04,VALID,1009.75,VALID,0,VALID,104,VALID,0,VALID,24.0624,VALID,346,VALID,0,
2013-03-10, 02:18:04,VALID,1009.78,VALID,0,VALID,104,VALID,0,VALID,24.0429,VALID,346,VALID,0,
2013-03-10, 02:19:04,VALID,1009.76,VALID,0,VALID,104,VALID,0,VALID,24.0643,VALID,346,VALID,0,
2013-03-10, 02:20:04,VALID,1009.76,VALID,0,VALID,104,VALID,0,VALID,24.0643,VALID,346,VALID,0,
2013-03-10, 02:21:04,VALID,1009.78,VALID,0,VALID,104,VALID,0,VALID,24.0448,VALID,346,VALID,0,
2013-03-10, 02:22:04,VALID,1009.79,VALID,0,VALID,104,VALID,0,VALID,24.0448,VALID,346,VALID,0,
2013-03-10, 02:23:04,VALID,1009.78,VALID,0,VALID,104,VALID,0,VALID,24.004,VALID,346,VALID,0,
2013-03-10, 02:24:04,VALID,1009.77,VALID,0,VALID,104,VALID,0,VALID,24.0448,VALID,346,VALID,0,
2013-03-10, 02:25:04,VALID,1009.81,VALID,0,VALID,104,VALID,0,VALID,24.0643,VALID,346,VALID,0,
2013-03-10, 02:26:04,VALID,1009.78,VALID,0,VALID,104,VALID,0,VALID,24.0448,VALID,346,VALID,0,
2013-03-10, 02:27:04,VALID,1009.79,VALID,0,VALID,104,VALID,0,VALID,24.0448,VALID,346,VALID,0,
2013-03-10, 02:28:04,VALID,1009.81,VALID,0,VALID,104,VALID,0,VALID,24.0643,VALID,346,VALID,0,
2013-03-10, 02:29:04,VALID,1009.82,VALID,0,VALID,104,VALID,0,VALID,24.0448,VALID,346,VALID,0,
2013-03-10, 02:30:04,VALID,1009.86,VALID,0,VALID,104,VALID,0,VALID,24.0058,VALID,346,VALID,0,
2013-03-10, 02:31:04,VALID,1009.85,VALID,0,VALID,104,VALID,0,VALID,24.0058,VALID,346,VALID,0,
2013-03-10, 02:32:04,VALID,1009.9,VALID,0,VALID,104,VALID,0,VALID,23.9863,VALID,346,VALID,0,
2013-03-10, 02:33:04,VALID,1009.9,VALID,0,VALID,104,VALID,0,VALID,23.9863,VALID,346,VALID,0,
2013-03-10, 02:34:04,VALID,1009.87,VALID,0,VALID,104,VALID,0,VALID,24.0058,VALID,346,VALID,0,
2013-03-10, 02:35:04,VALID,1009.87,VALID,0,VALID,104,VALID,0,VALID,24.0448,VALID,346,VALID,0,
2013-03-10, 02:36:04,VALID,1009.86,VALID,0,VALID,104,VALID,0,VALID,24.0253,VALID,346,VALID,0,
2013-03-10, 02:37:04,VALID,1009.82,VALID,0,VALID,104,VALID,0,VALID,24.0448,VALID,346,VALID,0,
2013-03-10, 02:38:04,VALID,1009.84,VALID,0,VALID,104,VALID,0,VALID,24.0253,VALID,346,VALID,0.141406,
2013-03-10, 02:39:04,VALID,1009.84,VALID,0,VALID,104,VALID,0,VALID,24.0058,VALID,346,VALID,0,
2013-03-10, 02:40:04,VALID,1009.85,VALID,0,VALID,104,VALID,0,VALID,24.0058,VALID,346,VALID,0,
2013-03-10, 02:41:04,VALID,1009.84,VALID,0,VALID,104,VALID,0,VALID,23.9668,VALID,346,VALID,0,
2013-03-10, 02:42:04,VALID,1009.86,VALID,0,VALID,104,VALID,0,VALID,23.9473,VALID,346,VALID,0,
2013-03-10, 02:43:04,VALID,1009.85,VALID,0,VALID,104,VALID,0,VALID,23.9473,VALID,346,VALID,0,
2013-03-10, 02:44:04,VALID,1009.86,VALID,0,VALID,104,VALID,0,VALID,23.9473,VALID,346,VALID,0,
2013-03-10, 02:45:04,VALID,1009.87,VALID,0,VALID,104,VALID,0,VALID,23.9278,VALID,346,VALID,0,
2013-03-10, 02:46:04,VALID,1009.86,VALID,0,VALID,104,VALID,0,VALID,23.9065,VALID,346,VALID,0,
2013-03-10, 02:47:04,VALID,1009.87,VALID,0,VALID,104,VALID,0,VALID,23.9084,VALID,346,VALID,0,
2013-03-10, 02:48:04,VALID,1009.86,VALID,0,VALID,104,VALID,0,VALID,23.9084,VALID,346,VALID,0,
2013-03-10, 02:49:04,VALID,1009.88,VALID,0,VALID,104,VALID,0.112112,VALID,23.8871,VALID,346,VALID,0,
2013-03-10, 02:50:04,VALID,1009.86,VALID,0,VALID,104,VALID,0,VALID,23.8889,VALID,346,VALID,0,
2013-03-10, 02:51:04,VALID,1009.87,VALID,0,VALID,104,VALID,0,VALID,23.9084,VALID,346,VALID,0,
2013-03-10, 02:52:05,VALID,1009.86,VALID,0,VALID,104,VALID,0,VALID,23.9473,VALID,346,VALID,0.348047,
2013-03-10, 02:53:05,VALID,1009.86,VALID,0,VALID,104,VALID,0,VALID,23.9473,VALID,346,VALID,0.160938,
2013-03-10, 02:54:05,VALID,1009.85,VALID,0,VALID,104,VALID,0,VALID,23.9084,VALID,346,VALID,0.212891,
2013-03-10, 02:55:05,VALID,1009.85,VALID,0,VALID,104,VALID,0,VALID,23.926,VALID,346,VALID,0.409766,
2013-03-10, 02:56:05,VALID,1009.86,VALID,0,VALID,104,VALID,0,VALID,23.9455,VALID,346,VALID,0.365234,
2013-03-10, 02:57:05,VALID,1009.89,VALID,0,VALID,104,VALID,0,VALID,23.9863,VALID,346,VALID,0.329688,
2013-03-10, 02:58:05,VALID,1009.87,VALID,0,VALID,104,VALID,0,VALID,23.9473,VALID,346,VALID,0.276172,
2013-03-10, 02:59:05,VALID,1009.87,VALID,0,VALID,104,VALID,0.112112,VALID,23.9065,VALID,346,VALID,0.518359,
2013-03-10, 03:00:05,VALID,1009.84,VALID,0,VALID,104,VALID,0.112112,VALID,23.9084,VALID,346,VALID,0.405859,
2013-03-10, 03:01:05,VALID,1009.87,VALID,0,VALID,104,VALID,0,VALID,23.8889,VALID,346,VALID,0.336328,
2013-03-10, 03:02:05,VALID,1009.83,VALID,0,VALID,104,VALID,0,VALID,23.8481,VALID,346,VALID,0.325,
2013-03-10, 03:03:05,VALID,1009.82,VALID,0,VALID,104,VALID,0,VALID,23.8499,VALID,346,VALID,0.332031,
2013-03-10, 03:04:05,VALID,1009.82,VALID,0,VALID,104,VALID,0,VALID,23.8091,VALID,346,VALID,0.506641,
2013-03-10, 03:05:05,VALID,1009.8,VALID,0,VALID,104,VALID,0,VALID,23.7914,VALID,346,VALID,0.228906,
2013-03-10, 03:06:05,VALID,1009.8,VALID,0,VALID,104,VALID,0,VALID,23.7701,VALID,346,VALID,0.175391,
2013-03-10, 03:07:05,VALID,1009.78,VALID,0,VALID,104,VALID,0,VALID,23.772,VALID,346,VALID,0.157422,
2013-03-10, 03:08:05,VALID,1009.77,VALID,0,VALID,104,VALID,0,VALID,23.7312,VALID,346,VALID,0.171094,
2013-03-10, 03:09:05,VALID,1009.76,VALID,0,VALID,104,VALID,0,VALID,23.733,VALID,346,VALID,0.151172,
2013-03-10, 03:10:05,VALID,1009.75,VALID,0,VALID,104,VALID,0.112112,VALID,23.6922,VALID,346,VALID,0,
2013-03-10, 03:11:05,VALID,1009.76,VALID,0,VALID,104,VALID,0,VALID,23.7135,VALID,346,VALID,0.0789063,
2013-03-10, 03:12:05,VALID,1009.76,VALID,0,VALID,104,VALID,0,VALID,23.6727,VALID,346,VALID,0.157422,
2013-03-10, 03:13:05,VALID,1009.78,VALID,0,VALID,104,VALID,0,VALID,23.694,VALID,346,VALID,0.139844,
2013-03-10, 03:14:05,VALID,1009.77,VALID,0,VALID,104,VALID,0.112112,VALID,23.694,VALID,346,VALID,0.257031,
2013-03-10, 03:15:05,VALID,1009.82,VALID,0,VALID,104,VALID,0.112112,VALID,23.694,VALID,346,VALID,0.199609,
2013-03-10, 03:16:05,VALID,1009.81,VALID,0,VALID,104,VALID,0.112112,VALID,23.694,VALID,346,VALID,0.236328,
2013-03-10, 03:17:05,VALID,1009.8,VALID,0,VALID,104,VALID,0,VALID,23.6745,VALID,346,VALID,0.253125,
2013-03-10, 03:18:05,VALID,1009.81,VALID,0,VALID,104,VALID,0,VALID,23.6338,VALID,346,VALID,0.40625,
2013-03-10, 03:19:05,VALID,1009.82,VALID,0,VALID,104,VALID,0,VALID,23.6143,VALID,346,VALID,0.361719,
2013-03-10, 03:20:05,VALID,1009.77,VALID,0,VALID,104,VALID,0,VALID,23.5966,VALID,346,VALID,0.298047,
2013-03-10, 03:21:05,VALID,1009.75,VALID,0,VALID,104,VALID,0,VALID,23.5558,VALID,346,VALID,0.182812,
2013-03-10, 03:22:05,VALID,1009.76,VALID,0,VALID,104,VALID,0.112112,VALID,23.5771,VALID,346,VALID,0.175,
2013-03-10, 03:23:05,VALID,1009.74,VALID,0,VALID,104,VALID,0,VALID,23.5576,VALID,346,VALID,0,
2013-03-10, 03:24:05,VALID,1009.75,VALID,0,VALID,104,VALID,0,VALID,23.5381,VALID,346,VALID,0.102344,
2013-03-10, 03:25:05,VALID,1009.78,VALID,0,VALID,104,VALID,0,VALID,23.5576,VALID,346,VALID,0.229297,
2013-03-10, 03:26:05,VALID,1009.78,VALID,0,VALID,104,VALID,0,VALID,23.5576,VALID,346,VALID,0.408594,
2013-03-10, 03:27:05,VALID,1009.79,VALID,0,VALID,104,VALID,0,VALID,23.5753,VALID,346,VALID,0.349219,
2013-03-10, 03:28:05,VALID,1009.78,VALID,0,VALID,104,VALID,0,VALID,23.6161,VALID,346,VALID,0.261328,
2013-03-10, 03:29:05,VALID,1009.8,VALID,0,VALID,104,VALID,0.112112,VALID,23.6356,VALID,346,VALID,0.214844,
2013-03-10, 03:30:05,VALID,1009.82,VALID,0,VALID,104,VALID,0,VALID,23.5948,VALID,346,VALID,0.281641,
2013-03-10, 03:31:05,VALID,1009.78,VALID,0,VALID,104,VALID,0,VALID,23.6356,VALID,346,VALID,0.242578,
2013-03-10, 03:32:05,VALID,1009.84,VALID,0,VALID,104,VALID,0,VALID,23.6338,VALID,346,VALID,0.286328,
2013-03-10, 03:33:05,VALID,1009.86,VALID,0,VALID,104,VALID,0,VALID,23.6745,VALID,346,VALID,0.341016,
2013-03-10, 03:34:05,VALID,1009.86,VALID,0,VALID,104,VALID,0,VALID,23.7135,VALID,346,VALID,0.141797,
2013-03-10, 03:35:05,VALID,1009.89,VALID,0,VALID,104,VALID,0,VALID,23.7135,VALID,346,VALID,0.0273438,
2013-03-10, 03:36:05,VALID,1009.9,VALID,0,VALID,104,VALID,0,VALID,23.7135,VALID,346,VALID,0.0566406,
2013-03-10, 03:37:05,VALID,1009.9,VALID,0,VALID,104,VALID,0,VALID,23.733,VALID,346,VALID,0.180078,
2013-03-10, 03:38:05,VALID,1009.92,VALID,0,VALID,104,VALID,0,VALID,23.733,VALID,346,VALID,0.0417969,
2013-03-10, 03:39:05,VALID,1009.93,VALID,0,VALID,104,VALID,0,VALID,23.733,VALID,346,VALID,0.0078125,
2013-03-10, 03:40:05,VALID,1009.95,VALID,0,VALID,104,VALID,0,VALID,23.733,VALID,346,VALID,0.164063,
2013-03-10, 03:41:05,VALID,1009.98,VALID,0,VALID,104,VALID,0,VALID,23.733,VALID,346,VALID,0.0988281,
2013-03-10, 03:42:05,VALID,1009.94,VALID,0,VALID,104,VALID,0,VALID,23.772,VALID,346,VALID,0.0667969,
2013-03-10, 03:43:05,VALID,1009.94,VALID,0,VALID,104,VALID,0,VALID,23.8109,VALID,346,VALID,0.260156,
2013-03-10, 03:44:05,VALID,1009.96,VALID,0,VALID,104,VALID,0,VALID,23.8109,VALID,346,VALID,0.386328,
2013-03-10, 03:45:05,VALID,1009.93,VALID,0,VALID,104,VALID,0,VALID,23.7914,VALID,346,VALID,0.383203,
2013-03-10, 03:46:05,VALID,1009.89,VALID,0,VALID,104,VALID,0.112112,VALID,23.7117,VALID,346,VALID,0.377344,
2013-03-10, 03:47:05,VALID,1009.89,VALID,0,VALID,104,VALID,0,VALID,23.6745,VALID,346,VALID,0.328516,
2013-03-10, 03:48:05,VALID,1009.84,VALID,0,VALID,104,VALID,0,VALID,23.5966,VALID,346,VALID,0.205859,
2013-03-10, 03:49:05,VALID,1009.85,VALID,0,VALID,104,VALID,0,VALID,23.5576,VALID,346,VALID,0.0554687,
2013-03-10, 03:50:05,VALID,1009.85,VALID,0,VALID,104,VALID,0,VALID,23.5381,VALID,346,VALID,0,
2013-03-10, 03:51:05,VALID,1009.85,VALID,0,VALID,104,VALID,0,VALID,23.5381,VALID,346,VALID,0,
2013-03-10, 03:52:05,VALID,1009.87,VALID,0,VALID,104,VALID,0,VALID,23.5771,VALID,346,VALID,0,
2013-03-10, 03:53:05,VALID,1009.87,VALID,0,VALID,104,VALID,0,VALID,23.5966,VALID,346,VALID,0,
2013-03-10, 03:54:05,VALID,1009.88,VALID,0,VALID,104,VALID,0,VALID,23.6161,VALID,345,VALID,0,
2013-03-10, 03:55:05,VALID,1009.87,VALID,0,VALID,104,VALID,0.112112,VALID,23.6161,VALID,346,VALID,0,
2013-03-10, 03:56:05,VALID,1009.89,VALID,0,VALID,104,VALID,0,VALID,23.5771,VALID,346,VALID,0.190234,
2013-03-10, 03:57:05,VALID,1009.88,VALID,0,VALID,104,VALID,0,VALID,23.5186,VALID,346,VALID,0.361328,